Kosmos-928

operational
NORAD ID: 10141 Int'l Des: 1977-064 Owner: VMF Country: SU
LEOCIRCULARPOLAR

About Kosmos-928

Description loading...

Live Position

Loading 3D Globe...

Upcoming Passes

Altitude History

Altitude vs Time

uPlot chart will show altitude changes over time

Two-Line Element Set

1 10141U 77064A 26102.97178698 .00000044 00000-0 29396-4 0 9998
2 10141 82.9700 186.2857 0037878 185.7936 174.2788 13.76900607448523
Epoch: Apr 12, 2026 • Age: 9 hours

Current Status

Altitude 974.6 km
Velocity 7.38 km/s
Sub-Earth Point 61.81°N, 22.01°E
Launch Date Jul 13, 1977
Age 48.7 years
Type other

Technical Details

Classification Payload
Mass 800.00 kg
Dry Mass 800.00 kg
Total Mass 800.00 kg
Length 5.00 m
Diameter 2.10 m
Span 17.00 m
Shape Cyl + Ant
Manufacturer OAZ
Bus Type KAUR-1 11F627
Phase Status In Orbit
Owner/State VMF/SU

Large Constellations

Loading constellations...